EW2485 Weather Reports


Display with metric or nautical units.
time (UTC)temp
F
wind
direction
speed
MPH
gust
MPH
rain 1hr
in
rain 24hr
in
rain mn
in
humidity
%
barometer
mb
20260508084543 34 15 2.0 4.0 0.00 0.00 0.00 82 1012.6
20260508083013 35 1 2.0 5.0 0.00 0.00 0.00 82 1012.3
20260508081535 36 63 1.0 4.0 0.00 0.00 0.00 82 1012.3
20260508080059 37 253 2.0 4.0 0.00 0.00 0.00 81 1012.4
20260508074509 38 331 3.0 6.0 0.00 0.00 0.00 80 1012.1
20260508073041 39 23 2.0 6.0 0.00 0.00 0.00 79 1012.1
20260508071525 40 331 2.0 8.0 0.00 0.00 0.00 79 1012.3
20260508070100 40 330 2.0 7.0 0.00 0.00 0.00 80 1012.3
20260508064535 39 331 1.0 5.0 0.00 0.00 0.00 81 1012.4
20260508063125 38 334 2.0 5.0 0.00 0.00 0.00 83 1012.1
20260508061518 37 18 2.0 5.0 0.00 0.00 0.00 83 1012.0
20260508060039 36 15 2.0 4.0 0.00 0.00 0.00 83 1011.8
20260508054554 36 28 2.0 4.0 0.00 0.00 0.00 83 1011.9
20260508053010 36 6 3.0 6.0 0.00 0.00 0.00 83 1012.0
20260508051602 36 1 0.0 2.0 0.00 0.00 0.00 82 1012.1
20260508050055 37 1 2.0 3.0 0.00 0.00 0.00 82 1012.3
20260508044518 37 120 2.0 4.0 0.00 0.00 0.00 83 1012.2
20260508043042 36 324 4.0 5.0 0.00 0.00 0.00 83 1012.2
20260508041524 36 89 0.0 2.0 0.00 0.00 0.00 83 1012.1
20260508040049 36 1 1.0 3.0 0.00 0.00 0.00 83 1012.1
20260508034502 35 9 3.0 5.0 0.00 0.00 0.00 83 1012.0
20260508033034 35 1 1.0 3.0 0.00 0.00 0.00 82 1011.9
20260508031547 35 32 1.0 4.0 0.00 0.00 0.00 82 1012.0
20260508030019 35 1 2.0 4.0 0.00 0.00 0.00 81 1011.8
20260508024536 35 1 1.0 3.0 0.00 0.00 0.00 81 1011.7
20260508023053 36 346 3.0 5.0 0.00 0.00 0.00 81 1011.4
20260508021549 36 32 3.0 6.0 0.00 0.00 0.00 80 1011.2
20260508020023 37 6 5.0 6.0 0.00 0.00 0.00 80 1011.3
20260508014555 37 23 2.0 4.0 0.00 0.00 0.00 79 1011.3
20260508013019 38 21 3.0 6.0 0.00 0.00 0.00 78 1011.2
20260508011546 40 13 3.0 5.0 0.00 0.00 0.00 77 1011.1
20260508010006 41 9 3.0 5.0 0.00 0.00 0.00 75 1010.9
20260508004539 43 1 2.0 8.0 0.00 0.00 0.00 73 1010.7
20260508003021 44 342 4.0 9.0 0.00 0.00 0.00 71 1010.6
20260508001507 45 1 5.0 8.0 0.00 0.00 0.00 69 1010.6
20260508000049 46 18 4.0 9.0 0.00 0.00 0.00 67 1010.5
20260507234515 48 350 9.0 19.0 0.00 0.00 0.00 64 1010.4
20260507233044 49 331 5.0 11.0 0.00 0.00 0.00 61 1010.1
20260507231501 50 8 3.0 11.0 0.00 0.00 0.00 61 1010.3
20260507230045 50 286 5.0 13.0 0.00 0.00 0.00 60 1010.2
20260507224545 50 338 5.0 11.0 0.00 0.00 0.00 63 1010.3
20260507223001 50 13 4.0 9.0 0.00 0.00 0.00 62 1010.3
20260507221530 50 4 5.0 10.0 0.00 0.00 0.00 64 1010.3
20260507220046 50 331 6.0 11.0 0.00 0.00 0.00 62 1010.3
20260507214521 50 304 5.0 11.0 0.00 0.00 0.00 62 1010.4
20260507213146 50 336 8.0 15.0 0.00 0.00 0.00 61 1010.4
20260507211551 50 330 6.0 18.0 0.00 0.00 0.00 61 1010.6
20260507210040 50 8 11.0 20.0 0.00 0.00 0.00 63 1010.6
20260507204558 50 319 6.0 14.0 0.00 0.00 0.00 65 1010.6
20260507203035 51 342 10.0 16.0 0.00 0.00 0.00 63 1010.7
20260507201554 52 327 8.0 16.0 0.00 0.00 0.00 64 1010.6
20260507200110 50 351 7.0 13.0 0.00 0.01 0.00 65 1010.8
20260507194523 51 243 9.0 15.0 0.00 0.01 0.00 62 1010.9
20260507193046 51 265 6.0 16.0 0.00 0.01 0.00 60 1011.0
20260507191600 52 340 9.0 21.0 0.00 0.01 0.00 61 1011.2
20260507190033 52 257 6.0 19.0 0.00 0.02 0.00 60 1011.2
20260507184552 49 344 11.0 18.0 0.00 0.02 0.00 65 1011.5
20260507183040 49 333 13.0 19.0 0.00 0.02 0.00 63 1011.6
20260507181520 50 337 12.0 21.0 0.00 0.02 0.00 62 1011.7
20260507180051 50 9 8.0 14.0 0.00 0.03 0.00 63 1011.7
20260507174506 50 13 7.0 18.0 0.00 0.03 0.00 67 1011.7
20260507173030 50 288 7.0 14.0 0.00 0.03 0.00 65 1011.8
20260507171601 49 197 5.0 14.0 0.00 0.03 0.00 66 1011.9
20260507170016 48 329 7.0 19.0 0.00 0.04 0.00 66 1012.2
20260507164536 50 326 9.0 19.0 0.00 0.04 0.00 63 1012.2
20260507163100 52 342 15.0 26.0 0.00 0.04 0.00 58 1012.2
20260507161532 51 278 7.0 18.0 0.00 0.04 0.00 64 1012.2
20260507160048 51 288 8.0 15.0 0.00 0.05 0.00 65 1012.4
20260507154525 50 241 5.0 22.0 0.00 0.05 0.00 66 1012.4
20260507153011 50 354 5.0 15.0 0.00 0.05 0.00 65 1012.8
20260507151558 49 208 3.0 17.0 0.00 0.05 0.00 67 1013.0
20260507150051 47 271 7.0 19.0 0.00 0.05 0.00 68 1013.0
20260507144508 49 220 8.0 15.0 0.00 0.05 0.00 63 1013.0
20260507143035 49 138 4.0 9.0 0.00 0.05 0.00 65 1013.0
20260507141553 47 325 10.0 15.0 0.00 0.05 0.00 64 1013.3
20260507140017 47 233 4.0 12.0 0.00 0.11 0.00 68 1013.4
20260507134536 47 222 5.0 10.0 0.00 0.11 0.00 72 1013.4
20260507133054 45 293 5.0 12.0 0.00 0.11 0.00 71 1013.4
20260507131521 44 232 6.0 12.0 0.00 0.11 0.00 75 1013.5
20260507130054 44 286 7.0 13.0 0.00 0.23 0.00 74 1013.6
20260507124619 43 340 1.0 8.0 0.00 0.23 0.00 73 1013.5
20260507123040 41 341 7.0 12.0 0.00 0.23 0.00 72 1013.4
20260507121503 40 49 5.0 9.0 0.00 0.23 0.00 77 1013.4
20260507120043 40 233 3.0 9.0 0.00 0.30 0.00 82 1013.6
20260507114507 40 281 5.0 8.0 0.00 0.30 0.00 83 1013.6
20260507113037 39 135 1.0 3.0 0.00 0.30 0.00 87 1013.5
20260507111503 36 117 0.0 3.0 0.00 0.30 0.00 85 1013.3
20260507110031 36 28 1.0 3.0 0.00 0.34 0.00 86 1013.2
20260507104556 33 331 1.0 3.0 0.00 0.34 0.00 86 1013.2
20260507103015 31 46 2.0 3.0 0.00 0.34 0.00 85 1013.0
20260507101548 31 35 2.0 4.0 0.00 0.34 0.00 85 1013.0
20260507100113 32 350 4.0 6.0 0.00 0.38 0.00 85 1012.8
20260507094533 32 1 3.0 5.0 0.00 0.38 0.00 84 1012.7
20260507093019 33 1 3.0 5.0 0.00 0.38 0.00 84 1012.9
20260507091548 33 349 2.0 5.0 0.00 0.38 0.00 84 1012.9
20260507090023 34 1 3.0 5.0 0.00 0.39 0.00 83 1013.0